Home   Weather   Rancho Cucamonga   Past weeks

Flag for USA Past Weather in Rancho Cucamonga, California, USA — Yesterday and Last 2 Weeks

Now
66 °F

Passing clouds.


Feels Like: 66 °F
Forecast: 63 / 86 °F
Wind: No wind

Location: Ontario International Airport

Current Time: Oct 1, 2016 at 6:51:21 AM

Latest Report: Oct 1, 2016 at 5:53 AM


Visibility: 10 mi

Pressure: 29.94 "Hg

Humidity: 52%

Dew Point: 48 °F

Location of Rancho CucamongaLocation

Past Weather in Rancho Cucamonga — Graph

°F

Rancho Cucamonga Temperature Yesterday

Maximum temperature yesterday: 94 °F (at 1:53 PM)
Minimum temperature yesterday: 70 °F (at 4:53 AM)
Average temperature yesterday: 80 °F

High & Low Weather Summary for the Past Weeks

 TemperatureHumidityPressure
High104 °F (Sep 18, 2:53 PM)87% (Sep 21, 3:53 AM)30.01 "Hg (Sep 21, 3:53 AM)
Low56 °F (Sep 23, 3:53 AM)4% (Sep 18, 12:53 PM)29.76 "Hg (Sep 27, 2:53 PM)
Average78 °F39%29.90 "Hg
* Reported Sep 16 4:53 AM — Oct 1 4:53 AM, Rancho Cucamonga, Weather by CustomWeather, © 2016

Note: Actual official high and low records may vary slightly from our data, if they occured in-between our weather recording intervals... More about our weather records

Advertising

Rancho Cucamonga Weather History for the Previous 24 Hours

Scroll right to see more
 ConditionsComfort  
Time TempWeatherWind HumidityBarometerVisibility
4:53 AM
Sat, Oct 1
66 °FClear.No wind52%29.93 "Hg10 mi
3:53 AM66 °FClear.No wind56%29.93 "Hg10 mi
2:53 AM68 °FClear.No wind53%29.94 "Hg10 mi
1:53 AM68 °FClear.No wind51%29.94 "Hg10 mi
12:53 AM70 °FClear.3 mph49%29.94 "Hg10 mi
11:53 PM
Fri, Sep 30
73 °FClear.No wind43%29.94 "Hg10 mi
10:53 PM73 °FClear.3 mph41%29.94 "Hg10 mi
9:53 PM74 °FClear.5 mph40%29.93 "Hg10 mi
8:53 PM77 °FClear.6 mph35%29.91 "Hg10 mi
7:53 PM80 °FClear.9 mph31%29.90 "Hg10 mi
6:53 PM83 °FClear.12 mph26%29.89 "Hg10 mi
5:53 PM87 °FPassing clouds.14 mph24%29.88 "Hg10 mi
4:53 PM91 °FPassing clouds.12 mph21%29.88 "Hg10 mi
3:53 PM93 °FPassing clouds.13 mph21%29.88 "Hg10 mi
2:53 PM93 °FPassing clouds.13 mph20%29.89 "Hg10 mi
1:53 PM94 °FPassing clouds.9 mph20%29.91 "Hg10 mi
12:53 PM90 °FPassing clouds.8 mph24%29.95 "Hg10 mi
11:53 AM89 °FPassing clouds.7 mph23%29.98 "Hg10 mi
10:53 AM85 °FPassing clouds.No wind28%30.00 "Hg10 mi
9:53 AM81 °FPassing clouds.5 mph34%30.01 "Hg10 mi
8:53 AM77 °FPassing clouds.No wind40%30.01 "Hg10 mi
7:53 AM73 °FPassing clouds.No wind46%30.01 "Hg10 mi
6:53 AM70 °FPassing clouds.No wind51%30.00 "Hg10 mi
Weather by CustomWeather, © 2016

See weather overviewHow to use our weather pages